Clinton, MO

12:02 AM CST on February 21, 2017 (GMT -0600)
Clinton Memorial

Weather History for KGLY - February, 2012

Change the Weather History Date:

Wednesday, February 29, 2012

  Actual Average (KSZL) Record (KSZL)
Temperature  
Mean Temperature 55 °F -  
Max Temperature 62 °F 44 °F 68 °F (2016)
Min Temperature 48 °F 27 °F 28 °F (2008)
Degree Days  
Heating Degree Days 10    
Growing Degree Days 5 (Base 50)    
Moisture  
Dew Point 36 °F    
Average Humidity 50    
Maximum Humidity 77    
Minimum Humidity 34    
Precipitation  
Precipitation 0.00 in - - ()
Sea Level Pressure  
Sea Level Pressure 29.77 in    
Wind  
Wind Speed 17 mph (WSW)    
Max Wind Speed 29 mph    
Max Gust Speed 41 mph    
Visibility 9 miles    
Events      
Averages and records for this station are not official NWS values.
T = Trace of Precipitation, MM = Missing Value Source: NWS Daily Summary

Daily Weather History Graph

Daily Weather History Graph

Search for Another Location

Airport or City:

Trip Planner

Search our weather history database for the weather conditions in past years. The results will help you decide how hot, cold, wet, or windy it might be!

Date:

Astronomy

Feb. 29, 2012 Rise Set
Actual Time 6:47 AM CST 6:07 PM CST
Civil Twilight 6:20 AM CST 6:33 PM CST
Nautical Twilight 5:50 AM CST 7:04 PM CST
Astronomical Twilight 5:19 AM CST 7:35 PM CST
Moon 10:44 AM CST (2/29) 12:48 AM CST (2/29)
Length of Visible Light 12h 13m
Length of Day
11h 20m
Waxing Crescent, 47% of the Moon is Illuminated
Feb 29
Waxing Crescent
Feb 29
First Quarter
Mar 8
Full
Mar 14
Last Quarter
Mar 22
New

Hourly Weather History & Observations

Time (CST) Temp. Windchill Dew Point Humidity Pressure Visibility Wind Dir Wind Speed Gust Speed Precip Events Conditions
12:15 AM 62.6 °F - 55.4 °F 77% 29.59 in 9.0 mi WSW 21.9 mph 35.7 mph N/A   Mostly Cloudy
12:35 AM 62.6 °F - 55.4 °F 77% 29.59 in 9.0 mi SW 13.8 mph - N/A   Scattered Clouds
12:55 AM 62.6 °F - 50.0 °F 63% 29.61 in 7.0 mi WSW 18.4 mph 27.6 mph N/A   Clear
1:15 AM 62.6 °F - 48.2 °F 59% 29.63 in 7.0 mi WSW 18.4 mph 23.0 mph N/A   Clear
1:35 AM 60.8 °F - 46.4 °F 59% 29.64 in 7.0 mi WSW 20.7 mph 25.3 mph N/A   Clear
2:15 AM 57.2 °F - 39.2 °F 51% 29.68 in 6.0 mi SW 12.7 mph - N/A   Haze
2:35 AM 57.2 °F - 41.0 °F 55% 29.69 in 5.0 mi South 8.1 mph - N/A   Haze
2:55 AM 53.6 °F - 46.4 °F 77% 29.70 in 6.0 mi SSW 8.1 mph - N/A   Haze
3:15 AM 53.6 °F - 44.6 °F 72% 29.70 in 5.0 mi WSW 6.9 mph - N/A   Haze
3:35 AM 51.8 °F - 42.8 °F 71% 29.71 in 5.0 mi SW 9.2 mph - N/A   Haze
3:55 AM 51.8 °F - 39.2 °F 62% 29.72 in 6.0 mi SW 10.4 mph - N/A   Haze
4:15 AM 51.8 °F - 39.2 °F 62% 29.73 in 7.0 mi SW 9.2 mph - N/A   Clear
4:35 AM 51.8 °F - 37.4 °F 58% 29.74 in 7.0 mi WSW 10.4 mph - N/A   Clear
4:55 AM 51.8 °F - 37.4 °F 58% 29.75 in 8.0 mi SSW 8.1 mph - N/A   Clear
5:15 AM 50.0 °F - 35.6 °F 58% 29.75 in 8.0 mi SW 10.4 mph - N/A   Clear
5:35 AM 48.2 °F - 37.4 °F 66% 29.76 in 8.0 mi SSW 9.2 mph - N/A   Clear
5:55 AM 48.2 °F - 35.6 °F 62% 29.76 in 9.0 mi SW 11.5 mph - N/A   Clear
6:15 AM 48.2 °F - 35.6 °F 62% 29.77 in 10.0 mi SW 9.2 mph - N/A   Clear
6:35 AM 48.2 °F - 35.6 °F 62% 29.77 in 8.0 mi SW 9.2 mph - N/A   Clear
6:55 AM 48.2 °F - 35.6 °F 62% 29.77 in 7.0 mi SW 10.4 mph 17.3 mph N/A   Clear
7:15 AM 48.2 °F - 35.6 °F 62% 29.78 in 8.0 mi SW 12.7 mph 19.6 mph N/A   Clear
7:35 AM 48.2 °F - 33.8 °F 58% 29.78 in 10.0 mi WSW 18.4 mph 25.3 mph N/A   Clear
7:55 AM 48.2 °F - 32.0 °F 54% 29.79 in 10.0 mi SW 12.7 mph 20.7 mph N/A   Clear
8:15 AM 48.2 °F - 32.0 °F 54% 29.79 in 9.0 mi SW 12.7 mph 21.9 mph N/A   Clear
8:35 AM 50.0 °F - 32.0 °F 50% 29.80 in 10.0 mi WSW 17.3 mph 23.0 mph N/A   Clear
8:55 AM 51.8 °F - 32.0 °F 47% 29.80 in 10.0 mi WSW 16.1 mph 25.3 mph N/A   Clear
9:15 AM 51.8 °F - 32.0 °F 47% 29.81 in 10.0 mi WSW 15.0 mph 27.6 mph N/A   Clear
9:35 AM 51.8 °F - 32.0 °F 47% 29.82 in 10.0 mi WSW 19.6 mph 25.3 mph N/A   Clear
9:55 AM 51.8 °F - 32.0 °F 47% 29.82 in 10.0 mi WSW 20.7 mph 28.8 mph N/A   Clear
10:15 AM 51.8 °F - 32.0 °F 47% 29.82 in 9.0 mi WSW 23.0 mph 29.9 mph N/A   Clear
10:35 AM 53.6 °F - 32.0 °F 44% 29.82 in 10.0 mi SW 20.7 mph 29.9 mph N/A   Clear
10:55 AM 53.6 °F - 32.0 °F 44% 29.82 in 10.0 mi WSW 24.2 mph 28.8 mph N/A   Clear
11:15 AM 53.6 °F - 32.0 °F 44% 29.83 in 9.0 mi WSW 25.3 mph 29.9 mph N/A   Clear
11:35 AM 55.4 °F - 32.0 °F 41% 29.82 in 10.0 mi WSW 20.7 mph 33.4 mph N/A   Clear
11:55 AM 55.4 °F - 32.0 °F 41% 29.82 in 9.0 mi WSW 27.6 mph 34.5 mph N/A   Clear
12:15 PM 55.4 °F - 32.0 °F 41% 29.81 in 10.0 mi West 28.8 mph 36.8 mph N/A   Clear
12:35 PM 57.2 °F - 32.0 °F 38% 29.82 in 10.0 mi WSW 26.5 mph 31.1 mph N/A   Clear
12:55 PM 57.2 °F - 32.0 °F 38% 29.80 in 9.0 mi WSW 18.4 mph 33.4 mph N/A   Clear
1:15 PM 57.2 °F - 32.0 °F 38% 29.79 in 10.0 mi West 24.2 mph 32.2 mph N/A   Clear
1:35 PM 57.2 °F - 30.2 °F 36% 29.78 in 10.0 mi West 27.6 mph 36.8 mph N/A   Clear
1:55 PM 57.2 °F - 32.0 °F 38% 29.78 in 10.0 mi WSW 28.8 mph 40.3 mph N/A   Clear
2:15 PM 57.2 °F - 32.0 °F 38% 29.79 in 10.0 mi WSW 19.6 mph 36.8 mph N/A   Clear
2:35 PM 59.0 °F - 32.0 °F 36% 29.79 in 10.0 mi WSW 25.3 mph 32.2 mph N/A   Clear
2:55 PM 59.0 °F - 32.0 °F 36% 29.79 in 10.0 mi West 21.9 mph 29.9 mph N/A   Clear
3:15 PM 59.0 °F - 32.0 °F 36% 29.80 in 10.0 mi WSW 24.2 mph 41.4 mph N/A   Clear
3:55 PM 59.0 °F - 30.2 °F 34% 29.81 in 10.0 mi West 25.3 mph 35.7 mph N/A   Clear
4:15 PM 57.2 °F - 32.0 °F 38% 29.82 in 10.0 mi WSW 25.3 mph 33.4 mph N/A   Clear
4:35 PM 57.2 °F - 30.2 °F 36% 29.82 in 10.0 mi West 26.5 mph 36.8 mph N/A   Clear
4:55 PM 57.2 °F - 30.2 °F 36% 29.82 in 10.0 mi West 21.9 mph 32.2 mph N/A   Clear
5:15 PM 57.2 °F - 30.2 °F 36% 29.83 in 10.0 mi WSW 17.3 mph 24.2 mph N/A   Clear
5:35 PM 55.4 °F - 30.2 °F 38% 29.83 in 9.0 mi WSW 17.3 mph 24.2 mph N/A   Clear
5:55 PM 55.4 °F - 30.2 °F 38% 29.83 in 10.0 mi West 13.8 mph 18.4 mph N/A   Clear
6:15 PM 55.4 °F - 30.2 °F 38% 29.84 in 10.0 mi West 12.7 mph 16.1 mph N/A   Clear
6:35 PM 53.6 °F - 30.2 °F 41% 29.84 in 10.0 mi West 11.5 mph - N/A   Clear
6:55 PM 51.8 °F - 30.2 °F 44% 29.85 in 10.0 mi WSW 8.1 mph - N/A   Clear
7:15 PM 48.2 °F - 30.2 °F 50% 29.86 in 10.0 mi WSW 6.9 mph - N/A   Clear
7:35 PM 48.2 °F - 32.0 °F 54% 29.87 in 10.0 mi WSW 8.1 mph - N/A   Clear
7:55 PM 46.4 °F 43.5 °F 32.0 °F 57% 29.87 in 10.0 mi West 5.8 mph - N/A   Clear
8:15 PM 46.4 °F 44.3 °F 30.2 °F 53% 29.87 in 10.0 mi WSW 4.6 mph - N/A   Clear
8:35 PM 46.4 °F 45.2 °F 32.0 °F 57% 29.87 in 10.0 mi WSW 3.5 mph - N/A   Clear
8:55 PM 46.4 °F 44.3 °F 32.0 °F 57% 29.88 in 10.0 mi WSW 4.6 mph - N/A   Clear
9:15 PM 46.4 °F 43.5 °F 32.0 °F 57% 29.89 in 10.0 mi West 5.8 mph - N/A   Clear
9:35 PM 44.6 °F 42.2 °F 32.0 °F 61% 29.89 in 10.0 mi West 4.6 mph - N/A   Clear
9:55 PM 44.6 °F 41.4 °F 32.0 °F 61% 29.89 in 10.0 mi West 5.8 mph - N/A   Clear
10:15 PM 42.8 °F 38.6 °F 32.0 °F 66% 29.90 in 10.0 mi West 6.9 mph - N/A   Clear
10:35 PM 42.8 °F 38.6 °F 32.0 °F 66% 29.90 in 10.0 mi WSW 6.9 mph - N/A   Clear
10:55 PM 42.8 °F - 32.0 °F 66% 29.91 in 10.0 mi Calm Calm - N/A   Clear
11:15 PM 42.8 °F 41.1 °F 32.0 °F 66% 29.90 in 10.0 mi WSW 3.5 mph - N/A   Clear
11:35 PM 42.8 °F 41.1 °F 32.0 °F 66% 29.90 in 10.0 mi WSW 3.5 mph - N/A   Clear
11:55 PM 42.8 °F - 32.0 °F 66% 29.90 in 10.0 mi Calm Calm - N/A   Clear